Location: Newark
(7.1028°S, 35.3258°W)
Time: 05:26:39
(UTC+00:00)

Vanguard 3 - Visible Passes

Search period start: 25 February 2020 00:00
Search period end: 06 March 2020 00:00
Orbit: 508 x 3263 km, 33.3° (Epoch: 23 February)

Date Brightness Start Highest point End Pass type
(mag) Time Alt. Az. Time Alt. Az. Time Alt. Az.
25 Feb 10.8 01:20:21 10° SW 01:29:53 19° S 01:29:53 19° S visible
25 Feb 9.2 06:05:28 16° ENE 06:05:28 16° ENE 06:06:16 10° ENE visible
25 Feb 10.8 21:34:40 10° W 21:53:00 46° SSW 22:09:36 10° SE visible
25 Feb 10.7 23:58:53 10° WSW 00:12:44 24° SSW 00:19:53 17° SSE visible
26 Feb 11.1 02:22:49 10° SW 02:24:25 12° SSW 02:24:25 12° SSW visible
26 Feb 7.8 07:00:58 26° N 07:00:58 26° N 07:03:16 10° NNE visible
26 Feb 11.0 22:37:50 10° WSW 22:54:30 32° SSW 23:08:19 10° SE visible
27 Feb 10.7 01:03:17 10° SW 01:14:21 21° S 01:14:21 21° S visible
27 Feb 11.0 21:18:24 10° W 21:36:04 42° SSW 21:52:58 10° SE visible
27 Feb 10.8 23:42:23 10° WSW 23:56:36 25° S 00:04:12 17° SSE visible
28 Feb 11.0 02:05:15 10° SW 02:08:44 16° SSW 02:08:44 16° SSW visible
28 Feb 9.1 06:47:07 11° NNE 06:47:07 11° NNE 06:47:15 10° NNE visible
28 Feb 11.0 22:21:37 10° WSW 22:37:59 30° SSW 22:52:07 10° SE visible
29 Feb 10.7 00:46:08 10° SW 00:58:33 23° S 00:58:33 23° S visible
29 Feb 11.1 21:02:18 10° W 21:19:15 39° SSW 21:36:17 10° SE visible
29 Feb 10.8 23:25:48 10° SW 23:40:28 25° S 23:48:20 18° SSE visible
01 Mar 10.9 01:47:39 10° SW 01:52:51 19° SSW 01:52:51 19° SSW visible
01 Mar 11.0 22:05:28 10° WSW 22:21:34 29° SSW 22:35:57 10° SE visible
02 Mar 10.6 00:28:53 10° SW 00:42:37 26° S 00:42:37 26° S visible
02 Mar 11.1 20:46:21 10° W 21:02:34 36° SSW 21:19:34 10° SE visible
02 Mar 10.8 23:09:11 10° SW 23:24:20 26° S 23:32:21 19° SE visible
03 Mar 10.8 01:30:02 10° SW 01:36:52 23° SSW 01:36:52 23° SSW visible
03 Mar 11.1 21:49:23 10° WSW 22:05:12 29° S 22:19:50 10° SE visible
04 Mar 10.5 00:11:35 10° SW 00:26:36 29° S 00:26:36 29° S visible
04 Mar 11.3 02:30:05 10° SW 02:31:08 12° SW 02:31:08 12° SW visible
04 Mar 11.2 20:30:32 10° WSW 20:45:59 34° SSW 21:02:50 10° SE visible
04 Mar 10.7 22:52:30 10° SW 23:08:09 27° S 23:16:19 20° SE visible
05 Mar 10.7 01:12:24 10° SW 01:20:50 27° SSW 01:20:50 27° SSW visible
05 Mar 11.1 21:33:19 10° WSW 21:48:52 28° S 22:03:45 10° SE visible
